owner,sensor,date,latitude,longitude,vertical_datum,sea_water_practical_salinity,qcFlag 
ENP,ioos.station.NOAA.NDBC:TCVF1:1,2019-10-01T03:00:00Z,25.2130,-80.5330,1.5,18.83,11111222 
ENP,ioos.station.NOAA.NDBC:TCVF1:1,2019-10-01T04:00:00Z,25.2130,-80.5330,1.5,18.9,11111222 
ENP,ioos.station.NOAA.NDBC:TCVF1:1,2019-10-01T05:00:00Z,25.2130,-80.5330,1.5,18.97,11111222 
ENP,ioos.station.NOAA.NDBC:TCVF1:1,2019-10-01T06:00:00Z,25.2130,-80.5330,1.5,19.04,11111222 
ENP,ioos.station.NOAA.NDBC:TCVF1:1,2019-10-01T07:00:00Z,25.2130,-80.5330,1.5,17.88,11111222 
ENP,ioos.station.NOAA.NDBC:TCVF1:1,2019-10-01T08:00:00Z,25.2130,-80.5330,1.5,18.76,11111222 
ENP,ioos.station.NOAA.NDBC:TCVF1:1,2019-10-01T09:00:00Z,25.2130,-80.5330,1.5,18.7,11111222 
ENP,ioos.station.NOAA.NDBC:TCVF1:1,2019-10-01T10:00:00Z,25.2130,-80.5330,1.5,18.76,11111222 
ENP,ioos.station.NOAA.NDBC:TCVF1:1,2019-10-01T11:00:00Z,25.2130,-80.5330,1.5,18.76,11111222 
ENP,ioos.station.NOAA.NDBC:TCVF1:1,2019-10-01T12:00:00Z,25.2130,-80.5330,1.5,18.42,11111222 
ENP,ioos.station.NOAA.NDBC:TCVF1:1,2019-10-01T13:00:00Z,25.2130,-80.5330,1.5,18.22,11111222 
ENP,ioos.station.NOAA.NDBC:TCVF1:1,2019-10-01T15:00:00Z,25.2130,-80.5330,1.5,18.15,11111222 
ENP,ioos.station.NOAA.NDBC:TCVF1:1,2019-10-01T16:00:00Z,25.2130,-80.5330,1.5,18.02,11111222 
ENP,ioos.station.NOAA.NDBC:TCVF1:1,2019-10-01T17:00:00Z,25.2130,-80.5330,1.5,18.02,11111222 
ENP,ioos.station.NOAA.NDBC:TCVF1:1,2019-10-01T18:00:00Z,25.2130,-80.5330,1.5,18.09,11111222 
ENP,ioos.station.NOAA.NDBC:TCVF1:1,2019-10-01T19:00:00Z,25.2130,-80.5330,1.5,18.15,11111222 
ENP,ioos.station.NOAA.NDBC:TCVF1:1,2019-10-01T20:00:00Z,25.2130,-80.5330,1.5,18.29,11111222 
ENP,ioos.station.NOAA.NDBC:TCVF1:1,2019-10-01T21:00:00Z,25.2130,-80.5330,1.5,18.49,11111222 
ENP,ioos.station.NOAA.NDBC:TCVF1:1,2019-10-01T22:00:00Z,25.2130,-80.5330,1.5,18.63,11111222 
ENP,ioos.station.NOAA.NDBC:TCVF1:1,2019-10-01T23:00:00Z,25.2130,-80.5330,1.5,18.76,11111222 
ENP,ioos.station.NOAA.NDBC:TCVF1:1,2019-10-02T01:00:00Z,25.2130,-80.5330,1.5,19.04,11111222 
ENP,ioos.station.NOAA.NDBC:TCVF1:1,2019-10-02T03:00:00Z,25.2130,-80.5330,1.5,17.95,11111222 
ENP,ioos.station.NOAA.NDBC:TCVF1:1,2019-10-02T04:00:00Z,25.2130,-80.5330,1.5,18.9,11111222 
ENP,ioos.station.NOAA.NDBC:TCVF1:1,2019-10-02T05:00:00Z,25.2130,-80.5330,1.5,18.7,11111222 
ENP,ioos.station.NOAA.NDBC:TCVF1:1,2019-10-02T06:00:00Z,25.2130,-80.5330,1.5,18.63,11111222 
ENP,ioos.station.NOAA.NDBC:TCVF1:1,2019-10-02T07:00:00Z,25.2130,-80.5330,1.5,18.7,11111222 
ENP,ioos.station.NOAA.NDBC:TCVF1:1,2019-10-02T08:00:00Z,25.2130,-80.5330,1.5,18.83,11111222 
ENP,ioos.station.NOAA.NDBC:TCVF1:1,2019-10-02T09:00:00Z,25.2130,-80.5330,1.5,18.63,11111222 
ENP,ioos.station.NOAA.NDBC:TCVF1:1,2019-10-02T10:00:00Z,25.2130,-80.5330,1.5,18.02,11111222 
ENP,ioos.station.NOAA.NDBC:TCVF1:1,2019-10-02T11:00:00Z,25.2130,-80.5330,1.5,18.56,11111222 
ENP,ioos.station.NOAA.NDBC:TCVF1:1,2019-10-02T12:00:00Z,25.2130,-80.5330,1.5,18.29,11111222 
ENP,ioos.station.NOAA.NDBC:TCVF1:1,2019-10-02T13:00:00Z,25.2130,-80.5330,1.5,18.15,11111222 
ENP,ioos.station.NOAA.NDBC:TCVF1:1,2019-10-02T14:00:00Z,25.2130,-80.5330,1.5,18.02,11111222 
ENP,ioos.station.NOAA.NDBC:TCVF1:1,2019-10-02T16:00:00Z,25.2130,-80.5330,1.5,17.54,11111222 
ENP,ioos.station.NOAA.NDBC:TCVF1:1,2019-10-02T17:00:00Z,25.2130,-80.5330,1.5,17.68,11111222 
ENP,ioos.station.NOAA.NDBC:TCVF1:1,2019-10-02T18:00:00Z,25.2130,-80.5330,1.5,18.42,11111222 
ENP,ioos.station.NOAA.NDBC:TCVF1:1,2019-10-02T19:00:00Z,25.2130,-80.5330,1.5,20.54,11111222 
ENP,ioos.station.NOAA.NDBC:TCVF1:1,2019-10-02T20:00:00Z,25.2130,-80.5330,1.5,22.48,11111222 
ENP,ioos.station.NOAA.NDBC:TCVF1:1,2019-10-02T21:00:00Z,25.2130,-80.5330,1.5,27.77,11111222 
ENP,ioos.station.NOAA.NDBC:TCVF1:1,2019-10-02T22:00:00Z,25.2130,-80.5330,1.5,32.46,11111222 
ENP,ioos.station.NOAA.NDBC:TCVF1:1,2019-10-03T03:00:00Z,25.2130,-80.5330,1.5,25.85,11111222 
ENP,ioos.station.NOAA.NDBC:TCVF1:1,2019-10-03T04:00:00Z,25.2130,-80.5330,1.5,23.32,11111222 
ENP,ioos.station.NOAA.NDBC:TCVF1:1,2019-10-03T17:00:00Z,25.2130,-80.5330,1.5,34.66,11111222 
ENP,ioos.station.NOAA.NDBC:TCVF1:1,2019-10-03T18:00:00Z,25.2130,-80.5330,1.5,36.66,11111222 
ENP,ioos.station.NOAA.NDBC:TCVF1:1,2019-10-03T19:00:00Z,25.2130,-80.5330,1.5,36.66,11111222 
ENP,ioos.station.NOAA.NDBC:TCVF1:1,2019-10-03T20:00:00Z,25.2130,-80.5330,1.5,36.58,11111222 
ENP,ioos.station.NOAA.NDBC:TCVF1:1,2019-10-03T21:00:00Z,25.2130,-80.5330,1.5,36.66,11111222 
ENP,ioos.station.NOAA.NDBC:TCVF1:1,2019-10-03T22:00:00Z,25.2130,-80.5330,1.5,36.73,11111222 
ENP,ioos.station.NOAA.NDBC:TCVF1:1,2019-10-03T23:00:00Z,25.2130,-80.5330,1.5,38.15,11111222 
ENP,ioos.station.NOAA.NDBC:TCVF1:1,2019-10-04T01:00:00Z,25.2130,-80.5330,1.5,35.62,11111222 
ENP,ioos.station.NOAA.NDBC:TCVF1:1,2019-10-04T03:00:00Z,25.2130,-80.5330,1.5,33.7,11111222 
ENP,ioos.station.NOAA.NDBC:TCVF1:1,2019-10-04T04:00:00Z,25.2130,-80.5330,1.5,31.51,11111222 
ENP,ioos.station.NOAA.NDBC:TCVF1:1,2019-10-04T05:00:00Z,25.2130,-80.5330,1.5,29.7,11111222 
ENP,ioos.station.NOAA.NDBC:TCVF1:1,2019-10-04T06:00:00Z,25.2130,-80.5330,1.5,28.62,11111222 
ENP,ioos.station.NOAA.NDBC:TCVF1:1,2019-10-04T07:00:00Z,25.2130,-80.5330,1.5,28.27,11111222 
ENP,ioos.station.NOAA.NDBC:TCVF1:1,2019-10-04T08:00:00Z,25.2130,-80.5330,1.5,34.73,11111222 
ENP,ioos.station.NOAA.NDBC:TCVF1:1,2019-10-04T09:00:00Z,25.2130,-80.5330,1.5,35.77,11111222 
ENP,ioos.station.NOAA.NDBC:TCVF1:1,2019-10-04T10:00:00Z,25.2130,-80.5330,1.5,33.77,11111222 
ENP,ioos.station.NOAA.NDBC:TCVF1:1,2019-10-04T11:00:00Z,25.2130,-80.5330,1.5,35.62,11111222 
ENP,ioos.station.NOAA.NDBC:TCVF1:1,2019-10-04T12:00:00Z,25.2130,-80.5330,1.5,35.84,11111222 
ENP,ioos.station.NOAA.NDBC:TCVF1:1,2019-10-04T13:00:00Z,25.2130,-80.5330,1.5,36.43,11111222 
ENP,ioos.station.NOAA.NDBC:TCVF1:1,2019-10-04T14:00:00Z,25.2130,-80.5330,1.5,36.51,11111222 
ENP,ioos.station.NOAA.NDBC:TCVF1:1,2019-10-04T15:00:00Z,25.2130,-80.5330,1.5,36.73,11111222 
ENP,ioos.station.NOAA.NDBC:TCVF1:1,2019-10-04T16:00:00Z,25.2130,-80.5330,1.5,36.58,11111222 
ENP,ioos.station.NOAA.NDBC:TCVF1:1,2019-10-04T17:00:00Z,25.2130,-80.5330,1.5,36.95,11111222 
ENP,ioos.station.NOAA.NDBC:TCVF1:1,2019-10-04T18:00:00Z,25.2130,-80.5330,1.5,37.18,11111222 
ENP,ioos.station.NOAA.NDBC:TCVF1:1,2019-10-04T19:00:00Z,25.2130,-80.5330,1.5,37.18,11111222 
ENP,ioos.station.NOAA.NDBC:TCVF1:1,2019-10-04T21:00:00Z,25.2130,-80.5330,1.5,36.95,11111222 
ENP,ioos.station.NOAA.NDBC:TCVF1:1,2019-10-04T22:00:00Z,25.2130,-80.5330,1.5,36.88,11111222 
ENP,ioos.station.NOAA.NDBC:TCVF1:1,2019-10-04T23:00:00Z,25.2130,-80.5330,1.5,36.8,11111222 
ENP,ioos.station.NOAA.NDBC:TCVF1:1,2019-10-05T01:00:00Z,25.2130,-80.5330,1.5,36.36,11111222 
ENP,ioos.station.NOAA.NDBC:TCVF1:1,2019-10-05T03:00:00Z,25.2130,-80.5330,1.5,34.14,11111222 
ENP,ioos.station.NOAA.NDBC:TCVF1:1,2019-10-05T04:00:00Z,25.2130,-80.5330,1.5,32.68,11111222 
ENP,ioos.station.NOAA.NDBC:TCVF1:1,2019-10-05T05:00:00Z,25.2130,-80.5330,1.5,31.66,11111222 
ENP,ioos.station.NOAA.NDBC:TCVF1:1,2019-10-05T06:00:00Z,25.2130,-80.5330,1.5,30.28,11111222 
ENP,ioos.station.NOAA.NDBC:TCVF1:1,2019-10-05T07:00:00Z,25.2130,-80.5330,1.5,29.77,11111222 
ENP,ioos.station.NOAA.NDBC:TCVF1:1,2019-10-05T08:00:00Z,25.2130,-80.5330,1.5,28.98,11111222 
ENP,ioos.station.NOAA.NDBC:TCVF1:1,2019-10-05T09:00:00Z,25.2130,-80.5330,1.5,27.62,11111222 
ENP,ioos.station.NOAA.NDBC:TCVF1:1,2019-10-05T10:00:00Z,25.2130,-80.5330,1.5,35.47,11111222 
ENP,ioos.station.NOAA.NDBC:TCVF1:1,2019-10-05T11:00:00Z,25.2130,-80.5330,1.5,36.06,11111222 
ENP,ioos.station.NOAA.NDBC:TCVF1:1,2019-10-05T12:00:00Z,25.2130,-80.5330,1.5,36.36,11111222 
ENP,ioos.station.NOAA.NDBC:TCVF1:1,2019-10-05T13:00:00Z,25.2130,-80.5330,1.5,36.43,11111222 
ENP,ioos.station.NOAA.NDBC:TCVF1:1,2019-10-05T14:00:00Z,25.2130,-80.5330,1.5,35.62,11111222 
ENP,ioos.station.NOAA.NDBC:TCVF1:1,2019-10-05T15:00:00Z,25.2130,-80.5330,1.5,36.43,11111222 
ENP,ioos.station.NOAA.NDBC:TCVF1:1,2019-10-05T16:00:00Z,25.2130,-80.5330,1.5,36.51,11111222 
ENP,ioos.station.NOAA.NDBC:TCVF1:1,2019-10-05T17:00:00Z,25.2130,-80.5330,1.5,36.73,11111222 
ENP,ioos.station.NOAA.NDBC:TCVF1:1,2019-10-05T18:00:00Z,25.2130,-80.5330,1.5,34.58,11111222 
ENP,ioos.station.NOAA.NDBC:TCVF1:1,2019-10-05T19:00:00Z,25.2130,-80.5330,1.5,33.19,11111222 
ENP,ioos.station.NOAA.NDBC:TCVF1:1,2019-10-05T20:00:00Z,25.2130,-80.5330,1.5,31.51,11111222 
ENP,ioos.station.NOAA.NDBC:TCVF1:1,2019-10-05T21:00:00Z,25.2130,-80.5330,1.5,30.06,11111222 
ENP,ioos.station.NOAA.NDBC:TCVF1:1,2019-10-05T22:00:00Z,25.2130,-80.5330,1.5,28.7,11111222 
ENP,ioos.station.NOAA.NDBC:TCVF1:1,2019-10-05T23:00:00Z,25.2130,-80.5330,1.5,28.27,11111222 
ENP,ioos.station.NOAA.NDBC:TCVF1:1,2019-10-06T01:00:00Z,25.2130,-80.5330,1.5,27.2,11111222 
ENP,ioos.station.NOAA.NDBC:TCVF1:1,2019-10-06T03:00:00Z,25.2130,-80.5330,1.5,25.99,11111222 
ENP,ioos.station.NOAA.NDBC:TCVF1:1,2019-10-06T04:00:00Z,25.2130,-80.5330,1.5,26.63,11111222 
ENP,ioos.station.NOAA.NDBC:TCVF1:1,2019-10-06T05:00:00Z,25.2130,-80.5330,1.5,26.84,11111222 
ENP,ioos.station.NOAA.NDBC:TCVF1:1,2019-10-06T06:00:00Z,25.2130,-80.5330,1.5,27.12,11111222 
ENP,ioos.station.NOAA.NDBC:TCVF1:1,2019-10-06T07:00:00Z,25.2130,-80.5330,1.5,27.48,11111222 
ENP,ioos.station.NOAA.NDBC:TCVF1:1,2019-10-06T08:00:00Z,25.2130,-80.5330,1.5,27.98,11111222 
ENP,ioos.station.NOAA.NDBC:TCVF1:1,2019-10-06T09:00:00Z,25.2130,-80.5330,1.5,28.27,11111222 
ENP,ioos.station.NOAA.NDBC:TCVF1:1,2019-10-06T10:00:00Z,25.2130,-80.5330,1.5,28.34,11111222 
ENP,ioos.station.NOAA.NDBC:TCVF1:1,2019-10-06T11:00:00Z,25.2130,-80.5330,1.5,28.12,11111222 
ENP,ioos.station.NOAA.NDBC:TCVF1:1,2019-10-06T12:00:00Z,25.2130,-80.5330,1.5,27.55,11111222 
ENP,ioos.station.NOAA.NDBC:TCVF1:1,2019-10-06T13:00:00Z,25.2130,-80.5330,1.5,26.84,11111222 
ENP,ioos.station.NOAA.NDBC:TCVF1:1,2019-10-06T14:00:00Z,25.2130,-80.5330,1.5,26.48,11111222 
ENP,ioos.station.NOAA.NDBC:TCVF1:1,2019-10-06T15:00:00Z,25.2130,-80.5330,1.5,26.91,11111222 
ENP,ioos.station.NOAA.NDBC:TCVF1:1,2019-10-06T16:00:00Z,25.2130,-80.5330,1.5,27.34,11111222 
ENP,ioos.station.NOAA.NDBC:TCVF1:1,2019-10-06T17:00:00Z,25.2130,-80.5330,1.5,27.41,11111222 
ENP,ioos.station.NOAA.NDBC:TCVF1:1,2019-10-06T18:00:00Z,25.2130,-80.5330,1.5,27.34,11111222 
ENP,ioos.station.NOAA.NDBC:TCVF1:1,2019-10-06T19:00:00Z,25.2130,-80.5330,1.5,27.2,11111222 
ENP,ioos.station.NOAA.NDBC:TCVF1:1,2019-10-06T20:00:00Z,25.2130,-80.5330,1.5,26.98,11111222 
ENP,ioos.station.NOAA.NDBC:TCVF1:1,2019-10-06T21:00:00Z,25.2130,-80.5330,1.5,26.98,11111222 
ENP,ioos.station.NOAA.NDBC:TCVF1:1,2019-10-06T22:00:00Z,25.2130,-80.5330,1.5,27.2,11111222 
ENP,ioos.station.NOAA.NDBC:TCVF1:1,2019-10-06T23:00:00Z,25.2130,-80.5330,1.5,27.27,11111222 
ENP,ioos.station.NOAA.NDBC:TCVF1:1,2019-10-07T01:00:00Z,25.2130,-80.5330,1.5,27.27,11111222 
ENP,ioos.station.NOAA.NDBC:TCVF1:1,2019-10-07T03:00:00Z,25.2130,-80.5330,1.5,26.98,11111222 
ENP,ioos.station.NOAA.NDBC:TCVF1:1,2019-10-07T04:00:00Z,25.2130,-80.5330,1.5,26.48,11111222 
ENP,ioos.station.NOAA.NDBC:TCVF1:1,2019-10-07T05:00:00Z,25.2130,-80.5330,1.5,25.92,11111222 
ENP,ioos.station.NOAA.NDBC:TCVF1:1,2019-10-07T06:00:00Z,25.2130,-80.5330,1.5,25.49,11111222 
ENP,ioos.station.NOAA.NDBC:TCVF1:1,2019-10-07T07:00:00Z,25.2130,-80.5330,1.5,25.07,11111222 
ENP,ioos.station.NOAA.NDBC:TCVF1:1,2019-10-07T08:00:00Z,25.2130,-80.5330,1.5,24.72,11111222 
ENP,ioos.station.NOAA.NDBC:TCVF1:1,2019-10-07T09:00:00Z,25.2130,-80.5330,1.5,32.17,11111222 
ENP,ioos.station.NOAA.NDBC:TCVF1:1,2019-10-07T10:00:00Z,25.2130,-80.5330,1.5,32.6,11111222 
ENP,ioos.station.NOAA.NDBC:TCVF1:1,2019-10-07T11:00:00Z,25.2130,-80.5330,1.5,32.68,11111222 
ENP,ioos.station.NOAA.NDBC:TCVF1:1,2019-10-07T13:00:00Z,25.2130,-80.5330,1.5,32.53,11111222 
ENP,ioos.station.NOAA.NDBC:TCVF1:1,2019-10-07T14:00:00Z,25.2130,-80.5330,1.5,32.31,11111222 
ENP,ioos.station.NOAA.NDBC:TCVF1:1,2019-10-07T15:00:00Z,25.2130,-80.5330,1.5,32.24,11111222 
ENP,ioos.station.NOAA.NDBC:TCVF1:1,2019-10-07T16:00:00Z,25.2130,-80.5330,1.5,29.27,11111222 
ENP,ioos.station.NOAA.NDBC:TCVF1:1,2019-10-07T17:00:00Z,25.2130,-80.5330,1.5,30.28,11111222 
ENP,ioos.station.NOAA.NDBC:TCVF1:1,2019-10-07T18:00:00Z,25.2130,-80.5330,1.5,34.58,11111222 
ENP,ioos.station.NOAA.NDBC:TCVF1:1,2019-10-07T19:00:00Z,25.2130,-80.5330,1.5,35.03,11111222 
ENP,ioos.station.NOAA.NDBC:TCVF1:1,2019-10-07T20:00:00Z,25.2130,-80.5330,1.5,35.17,11111222 
ENP,ioos.station.NOAA.NDBC:TCVF1:1,2019-10-08T01:00:00Z,25.2130,-80.5330,1.5,34.51,11111222 
ENP,ioos.station.NOAA.NDBC:TCVF1:1,2019-10-08T03:00:00Z,25.2130,-80.5330,1.5,34.14,11111222 
ENP,ioos.station.NOAA.NDBC:TCVF1:1,2019-10-08T05:00:00Z,25.2130,-80.5330,1.5,34.51,11111222 
ENP,ioos.station.NOAA.NDBC:TCVF1:1,2019-10-08T06:00:00Z,25.2130,-80.5330,1.5,34.66,11111222 
ENP,ioos.station.NOAA.NDBC:TCVF1:1,2019-10-08T07:00:00Z,25.2130,-80.5330,1.5,34.8,11111222 
ENP,ioos.station.NOAA.NDBC:TCVF1:1,2019-10-08T08:00:00Z,25.2130,-80.5330,1.5,34.58,11111222 
ENP,ioos.station.NOAA.NDBC:TCVF1:1,2019-10-08T09:00:00Z,25.2130,-80.5330,1.5,34.36,11111222 
ENP,ioos.station.NOAA.NDBC:TCVF1:1,2019-10-08T10:00:00Z,25.2130,-80.5330,1.5,34.51,11111222 
ENP,ioos.station.NOAA.NDBC:TCVF1:1,2019-10-08T11:00:00Z,25.2130,-80.5330,1.5,34.0,11111222 
ENP,ioos.station.NOAA.NDBC:TCVF1:1,2019-10-08T13:00:00Z,25.2130,-80.5330,1.5,34.22,11111222 
ENP,ioos.station.NOAA.NDBC:TCVF1:1,2019-10-08T14:00:00Z,25.2130,-80.5330,1.5,34.22,11111222 
ENP,ioos.station.NOAA.NDBC:TCVF1:1,2019-10-08T15:00:00Z,25.2130,-80.5330,1.5,34.44,11111222 
ENP,ioos.station.NOAA.NDBC:TCVF1:1,2019-10-08T16:00:00Z,25.2130,-80.5330,1.5,34.29,11111222 
ENP,ioos.station.NOAA.NDBC:TCVF1:1,2019-10-08T17:00:00Z,25.2130,-80.5330,1.5,34.22,11111222 
ENP,ioos.station.NOAA.NDBC:TCVF1:1,2019-10-08T18:00:00Z,25.2130,-80.5330,1.5,34.22,11111222 
ENP,ioos.station.NOAA.NDBC:TCVF1:1,2019-10-08T19:00:00Z,25.2130,-80.5330,1.5,34.14,11111222 
ENP,ioos.station.NOAA.NDBC:TCVF1:1,2019-10-08T20:00:00Z,25.2130,-80.5330,1.5,33.77,11111222 
ENP,ioos.station.NOAA.NDBC:TCVF1:1,2019-10-08T21:00:00Z,25.2130,-80.5330,1.5,34.07,11111222 
ENP,ioos.station.NOAA.NDBC:TCVF1:1,2019-10-08T22:00:00Z,25.2130,-80.5330,1.5,34.44,11111222 
ENP,ioos.station.NOAA.NDBC:TCVF1:1,2019-10-08T23:00:00Z,25.2130,-80.5330,1.5,34.66,11111222 
ENP,ioos.station.NOAA.NDBC:TCVF1:1,2019-10-09T01:00:00Z,25.2130,-80.5330,1.5,34.73,11111222 
ENP,ioos.station.NOAA.NDBC:TCVF1:1,2019-10-09T03:00:00Z,25.2130,-80.5330,1.5,34.58,11111222 
ENP,ioos.station.NOAA.NDBC:TCVF1:1,2019-10-09T04:00:00Z,25.2130,-80.5330,1.5,34.8,11111222 
ENP,ioos.station.NOAA.NDBC:TCVF1:1,2019-10-09T05:00:00Z,25.2130,-80.5330,1.5,35.99,11111222 
ENP,ioos.station.NOAA.NDBC:TCVF1:1,2019-10-09T06:00:00Z,25.2130,-80.5330,1.5,34.58,11111222 
ENP,ioos.station.NOAA.NDBC:TCVF1:1,2019-10-09T07:00:00Z,25.2130,-80.5330,1.5,34.07,11111222 
ENP,ioos.station.NOAA.NDBC:TCVF1:1,2019-10-09T08:00:00Z,25.2130,-80.5330,1.5,33.33,11111222 
ENP,ioos.station.NOAA.NDBC:TCVF1:1,2019-10-09T09:00:00Z,25.2130,-80.5330,1.5,32.09,11111222 
ENP,ioos.station.NOAA.NDBC:TCVF1:1,2019-10-09T10:00:00Z,25.2130,-80.5330,1.5,31.08,11111222 
ENP,ioos.station.NOAA.NDBC:TCVF1:1,2019-10-09T12:00:00Z,25.2130,-80.5330,1.5,35.03,11111222 
ENP,ioos.station.NOAA.NDBC:TCVF1:1,2019-10-09T13:00:00Z,25.2130,-80.5330,1.5,35.1,11111222 
ENP,ioos.station.NOAA.NDBC:TCVF1:1,2019-10-09T14:00:00Z,25.2130,-80.5330,1.5,35.17,11111222 
ENP,ioos.station.NOAA.NDBC:TCVF1:1,2019-10-09T15:00:00Z,25.2130,-80.5330,1.5,35.47,11111222 
ENP,ioos.station.NOAA.NDBC:TCVF1:1,2019-10-09T16:00:00Z,25.2130,-80.5330,1.5,35.32,11111222 
ENP,ioos.station.NOAA.NDBC:TCVF1:1,2019-10-09T17:00:00Z,25.2130,-80.5330,1.5,33.55,11111222 
ENP,ioos.station.NOAA.NDBC:TCVF1:1,2019-10-09T18:00:00Z,25.2130,-80.5330,1.5,29.56,11111222 
ENP,ioos.station.NOAA.NDBC:TCVF1:1,2019-10-09T19:00:00Z,25.2130,-80.5330,1.5,28.12,11111222 
ENP,ioos.station.NOAA.NDBC:TCVF1:1,2019-10-09T20:00:00Z,25.2130,-80.5330,1.5,28.48,11111222 
ENP,ioos.station.NOAA.NDBC:TCVF1:1,2019-10-09T22:00:00Z,25.2130,-80.5330,1.5,26.41,11111222 
ENP,ioos.station.NOAA.NDBC:TCVF1:1,2019-10-10T01:00:00Z,25.2130,-80.5330,1.5,25.63,11111222 
ENP,ioos.station.NOAA.NDBC:TCVF1:1,2019-10-10T03:00:00Z,25.2130,-80.5330,1.5,24.02,11111222 
ENP,ioos.station.NOAA.NDBC:TCVF1:1,2019-10-10T04:00:00Z,25.2130,-80.5330,1.5,22.69,11111222 
ENP,ioos.station.NOAA.NDBC:TCVF1:1,2019-10-10T05:00:00Z,25.2130,-80.5330,1.5,22.41,11111222 
ENP,ioos.station.NOAA.NDBC:TCVF1:1,2019-10-10T06:00:00Z,25.2130,-80.5330,1.5,21.23,11111222 
ENP,ioos.station.NOAA.NDBC:TCVF1:1,2019-10-10T07:00:00Z,25.2130,-80.5330,1.5,20.48,11111222 
ENP,ioos.station.NOAA.NDBC:TCVF1:1,2019-10-10T08:00:00Z,25.2130,-80.5330,1.5,20.54,11111222 
ENP,ioos.station.NOAA.NDBC:TCVF1:1,2019-10-10T09:00:00Z,25.2130,-80.5330,1.5,20.54,11111222 
ENP,ioos.station.NOAA.NDBC:TCVF1:1,2019-10-10T10:00:00Z,25.2130,-80.5330,1.5,19.31,11111222 
ENP,ioos.station.NOAA.NDBC:TCVF1:1,2019-10-10T11:00:00Z,25.2130,-80.5330,1.5,18.9,11111222 
ENP,ioos.station.NOAA.NDBC:TCVF1:1,2019-10-10T12:00:00Z,25.2130,-80.5330,1.5,18.15,11111222 
ENP,ioos.station.NOAA.NDBC:TCVF1:1,2019-10-10T14:00:00Z,25.2130,-80.5330,1.5,20.34,11111222 
ENP,ioos.station.NOAA.NDBC:TCVF1:1,2019-10-10T15:00:00Z,25.2130,-80.5330,1.5,19.65,11111222 
ENP,ioos.station.NOAA.NDBC:TCVF1:1,2019-10-10T16:00:00Z,25.2130,-80.5330,1.5,19.99,11111222 
ENP,ioos.station.NOAA.NDBC:TCVF1:1,2019-10-10T17:00:00Z,25.2130,-80.5330,1.5,20.75,11111222 
ENP,ioos.station.NOAA.NDBC:TCVF1:1,2019-10-10T18:00:00Z,25.2130,-80.5330,1.5,23.25,11111222 
ENP,ioos.station.NOAA.NDBC:TCVF1:1,2019-10-10T19:00:00Z,25.2130,-80.5330,1.5,33.41,11111222 
ENP,ioos.station.NOAA.NDBC:TCVF1:1,2019-10-10T20:00:00Z,25.2130,-80.5330,1.5,20.54,11111222 
ENP,ioos.station.NOAA.NDBC:TCVF1:1,2019-10-10T21:00:00Z,25.2130,-80.5330,1.5,19.93,11111222 
ENP,ioos.station.NOAA.NDBC:TCVF1:1,2019-10-10T22:00:00Z,25.2130,-80.5330,1.5,19.45,11111222 
ENP,ioos.station.NOAA.NDBC:TCVF1:1,2019-10-10T23:00:00Z,25.2130,-80.5330,1.5,19.99,11111222 
ENP,ioos.station.NOAA.NDBC:TCVF1:1,2019-10-11T00:00:00Z,25.2130,-80.5330,1.5,18.7,11111222 
ENP,ioos.station.NOAA.NDBC:TCVF1:1,2019-10-11T01:00:00Z,25.2130,-80.5330,1.5,19.65,11111222 
ENP,ioos.station.NOAA.NDBC:TCVF1:1,2019-10-11T03:00:00Z,25.2130,-80.5330,1.5,20.27,11111222 
ENP,ioos.station.NOAA.NDBC:TCVF1:1,2019-10-11T04:00:00Z,25.2130,-80.5330,1.5,33.04,11111222 
ENP,ioos.station.NOAA.NDBC:TCVF1:1,2019-10-11T05:00:00Z,25.2130,-80.5330,1.5,20.89,11111222 
ENP,ioos.station.NOAA.NDBC:TCVF1:1,2019-10-11T06:00:00Z,25.2130,-80.5330,1.5,20.41,11111222 
ENP,ioos.station.NOAA.NDBC:TCVF1:1,2019-10-11T07:00:00Z,25.2130,-80.5330,1.5,20.13,11111222 
ENP,ioos.station.NOAA.NDBC:TCVF1:1,2019-10-11T08:00:00Z,25.2130,-80.5330,1.5,19.99,11111222 
ENP,ioos.station.NOAA.NDBC:TCVF1:1,2019-10-11T09:00:00Z,25.2130,-80.5330,1.5,19.65,11111222 
ENP,ioos.station.NOAA.NDBC:TCVF1:1,2019-10-11T10:00:00Z,25.2130,-80.5330,1.5,19.45,11111222 
ENP,ioos.station.NOAA.NDBC:TCVF1:1,2019-10-11T11:00:00Z,25.2130,-80.5330,1.5,19.58,11111222 
ENP,ioos.station.NOAA.NDBC:TCVF1:1,2019-10-11T12:00:00Z,25.2130,-80.5330,1.5,19.79,11111222 
ENP,ioos.station.NOAA.NDBC:TCVF1:1,2019-10-11T13:00:00Z,25.2130,-80.5330,1.5,21.58,11111222 
ENP,ioos.station.NOAA.NDBC:TCVF1:1,2019-10-11T14:00:00Z,25.2130,-80.5330,1.5,20.68,11111222 
ENP,ioos.station.NOAA.NDBC:TCVF1:1,2019-10-11T15:00:00Z,25.2130,-80.5330,1.5,20.89,11111222 
ENP,ioos.station.NOAA.NDBC:TCVF1:1,2019-10-11T16:00:00Z,25.2130,-80.5330,1.5,20.82,11111222 
ENP,ioos.station.NOAA.NDBC:TCVF1:1,2019-10-11T17:00:00Z,25.2130,-80.5330,1.5,20.82,11111222 
ENP,ioos.station.NOAA.NDBC:TCVF1:1,2019-10-11T18:00:00Z,25.2130,-80.5330,1.5,20.82,11111222 
ENP,ioos.station.NOAA.NDBC:TCVF1:1,2019-10-11T19:00:00Z,25.2130,-80.5330,1.5,20.13,11111222 
ENP,ioos.station.NOAA.NDBC:TCVF1:1,2019-10-11T20:00:00Z,25.2130,-80.5330,1.5,20.06,11111222 
ENP,ioos.station.NOAA.NDBC:TCVF1:1,2019-10-11T21:00:00Z,25.2130,-80.5330,1.5,20.06,11111222 
ENP,ioos.station.NOAA.NDBC:TCVF1:1,2019-10-11T22:00:00Z,25.2130,-80.5330,1.5,20.06,11111222 
ENP,ioos.station.NOAA.NDBC:TCVF1:1,2019-10-11T23:00:00Z,25.2130,-80.5330,1.5,20.13,11111222 
ENP,ioos.station.NOAA.NDBC:TCVF1:1,2019-10-12T00:00:00Z,25.2130,-80.5330,1.5,20.06,11111222 
ENP,ioos.station.NOAA.NDBC:TCVF1:1,2019-10-12T01:00:00Z,25.2130,-80.5330,1.5,20.06,11111222 
ENP,ioos.station.NOAA.NDBC:TCVF1:1,2019-10-12T03:00:00Z,25.2130,-80.5330,1.5,19.93,11111222 
ENP,ioos.station.NOAA.NDBC:TCVF1:1,2019-10-12T04:00:00Z,25.2130,-80.5330,1.5,19.93,11111222 
ENP,ioos.station.NOAA.NDBC:TCVF1:1,2019-10-12T05:00:00Z,25.2130,-80.5330,1.5,19.86,11111222 
ENP,ioos.station.NOAA.NDBC:TCVF1:1,2019-10-12T06:00:00Z,25.2130,-80.5330,1.5,19.86,11111222 
ENP,ioos.station.NOAA.NDBC:TCVF1:1,2019-10-12T07:00:00Z,25.2130,-80.5330,1.5,19.72,11111222 
ENP,ioos.station.NOAA.NDBC:TCVF1:1,2019-10-12T08:00:00Z,25.2130,-80.5330,1.5,19.65,11111222 
ENP,ioos.station.NOAA.NDBC:TCVF1:1,2019-10-12T09:00:00Z,25.2130,-80.5330,1.5,19.17,11111222 
ENP,ioos.station.NOAA.NDBC:TCVF1:1,2019-10-12T10:00:00Z,25.2130,-80.5330,1.5,19.65,11111222 
ENP,ioos.station.NOAA.NDBC:TCVF1:1,2019-10-12T11:00:00Z,25.2130,-80.5330,1.5,19.65,11111222 
ENP,ioos.station.NOAA.NDBC:TCVF1:1,2019-10-12T12:00:00Z,25.2130,-80.5330,1.5,19.79,11111222 
ENP,ioos.station.NOAA.NDBC:TCVF1:1,2019-10-12T13:00:00Z,25.2130,-80.5330,1.5,19.72,11111222 
ENP,ioos.station.NOAA.NDBC:TCVF1:1,2019-10-12T14:00:00Z,25.2130,-80.5330,1.5,19.65,11111222 
ENP,ioos.station.NOAA.NDBC:TCVF1:1,2019-10-12T15:00:00Z,25.2130,-80.5330,1.5,19.58,11111222 
ENP,ioos.station.NOAA.NDBC:TCVF1:1,2019-10-12T16:00:00Z,25.2130,-80.5330,1.5,19.58,11111222 
ENP,ioos.station.NOAA.NDBC:TCVF1:1,2019-10-12T17:00:00Z,25.2130,-80.5330,1.5,19.65,11111222 
ENP,ioos.station.NOAA.NDBC:TCVF1:1,2019-10-12T18:00:00Z,25.2130,-80.5330,1.5,21.03,11111222 
ENP,ioos.station.NOAA.NDBC:TCVF1:1,2019-10-12T19:00:00Z,25.2130,-80.5330,1.5,19.72,11111222 
ENP,ioos.station.NOAA.NDBC:TCVF1:1,2019-10-12T20:00:00Z,25.2130,-80.5330,1.5,19.52,11111222 
ENP,ioos.station.NOAA.NDBC:TCVF1:1,2019-10-12T21:00:00Z,25.2130,-80.5330,1.5,18.76,11111222 
ENP,ioos.station.NOAA.NDBC:TCVF1:1,2019-10-12T22:00:00Z,25.2130,-80.5330,1.5,18.56,11111222 
ENP,ioos.station.NOAA.NDBC:TCVF1:1,2019-10-12T23:00:00Z,25.2130,-80.5330,1.5,18.56,11111222 
ENP,ioos.station.NOAA.NDBC:TCVF1:1,2019-10-13T00:00:00Z,25.2130,-80.5330,1.5,18.56,11111222 
ENP,ioos.station.NOAA.NDBC:TCVF1:1,2019-10-13T01:00:00Z,25.2130,-80.5330,1.5,18.76,11111222 
ENP,ioos.station.NOAA.NDBC:TCVF1:1,2019-10-13T03:00:00Z,25.2130,-80.5330,1.5,18.83,11111222 
ENP,ioos.station.NOAA.NDBC:TCVF1:1,2019-10-13T04:00:00Z,25.2130,-80.5330,1.5,18.76,11111222 
ENP,ioos.station.NOAA.NDBC:TCVF1:1,2019-10-13T05:00:00Z,25.2130,-80.5330,1.5,19.17,11111222 
ENP,ioos.station.NOAA.NDBC:TCVF1:1,2019-10-13T06:00:00Z,25.2130,-80.5330,1.5,18.9,11111222 
ENP,ioos.station.NOAA.NDBC:TCVF1:1,2019-10-13T07:00:00Z,25.2130,-80.5330,1.5,18.9,11111222 
ENP,ioos.station.NOAA.NDBC:TCVF1:1,2019-10-13T08:00:00Z,25.2130,-80.5330,1.5,18.9,11111222 
ENP,ioos.station.NOAA.NDBC:TCVF1:1,2019-10-13T09:00:00Z,25.2130,-80.5330,1.5,19.04,11111222 
ENP,ioos.station.NOAA.NDBC:TCVF1:1,2019-10-13T10:00:00Z,25.2130,-80.5330,1.5,19.11,11111222 
ENP,ioos.station.NOAA.NDBC:TCVF1:1,2019-10-13T11:00:00Z,25.2130,-80.5330,1.5,19.24,11111222 
ENP,ioos.station.NOAA.NDBC:TCVF1:1,2019-10-13T12:00:00Z,25.2130,-80.5330,1.5,19.31,11111222 
ENP,ioos.station.NOAA.NDBC:TCVF1:1,2019-10-13T13:00:00Z,25.2130,-80.5330,1.5,19.45,11111222 
ENP,ioos.station.NOAA.NDBC:TCVF1:1,2019-10-13T14:00:00Z,25.2130,-80.5330,1.5,19.31,11111222 
ENP,ioos.station.NOAA.NDBC:TCVF1:1,2019-10-13T15:00:00Z,25.2130,-80.5330,1.5,19.24,11111222 
ENP,ioos.station.NOAA.NDBC:TCVF1:1,2019-10-13T16:00:00Z,25.2130,-80.5330,1.5,19.17,11111222 
ENP,ioos.station.NOAA.NDBC:TCVF1:1,2019-10-13T17:00:00Z,25.2130,-80.5330,1.5,19.24,11111222 
ENP,ioos.station.NOAA.NDBC:TCVF1:1,2019-10-13T18:00:00Z,25.2130,-80.5330,1.5,19.31,11111222 
ENP,ioos.station.NOAA.NDBC:TCVF1:1,2019-10-13T19:00:00Z,25.2130,-80.5330,1.5,19.24,11111222 